MULK1: ARKANSAS RIVER NEAR MULVANE 1W

Data processed at Thu May 23 2019 23:50


All information presented herein is the property of the government of the United States of America and may be revised or deleted at any time without prior notice.
Dissemination of this information without the expressed written consent of the Public Affairs Office, Tulsa District U.S. Army Corps of Engineers is strictly prohibited.
These data are gathered electronically and, as presented, have not undergone any form of quality control. These data are not guaranteed to be valid or correct.
Go to home page.
Go to station list.
Go to home page.

Upstream stations:

Downstream station:
Previous Day
Next Day
Current Day
    
SHEF ID:       MULK1     ARKANSAS RIVER NEAR MULVANE 1W
STATION TYPE:  

               PRECIP     STAGE  STAGE(2)  RIV-FLOW  BAT-LOAD
                   in        ft        ft       cfs      volt
              Ccp-Rev   Ccp-Rev   Ccp-Rev   Ccp-Rev   Ccp-Rev
(US/Central)
05/23 00:00      0.00     19.69      ----     29000     12.33
05/23 01:00      0.00     19.65      ----     28900     12.33
05/23 02:00      0.00     19.63      ----     28800     12.33
05/23 03:00      0.00     19.56      ----     28700     12.25
05/23 04:00      0.00     19.54      ----     28700     12.25
05/23 05:00      0.00     19.47      ----     28500     12.25
05/23 06:00      0.00     19.39      ----     28400     12.25
05/23 07:00      0.00     19.32      ----     28300     12.25
05/23 08:00      0.00     19.25      ----     28100     12.25
05/23 09:00      0.00     19.18      ----     28000     12.33
05/23 10:00      0.00     19.08      ----     27800     12.57
05/23 11:00      0.00     19.03      ----     27700     12.57
05/23 12:00      0.00     18.96      ----     27600     12.73
05/23 13:00      0.00     18.91      ----     27500     12.81
05/23 14:00      0.00     18.82      ----     27300     13.37
05/23 15:00      0.00     18.76      ----     27200     13.60
05/23 16:00      0.00     18.69      ----     27000     13.68
05/23 17:00      0.00     18.55      ----     26800     13.37
05/23 18:00      0.00     18.52      ----     26700     13.13
05/23 19:00      0.00     18.52      ----     26700     13.05
05/23 20:00      0.00     18.48      ----     26600     12.57
05/23 21:00      0.00     18.39      ----     26400     12.33
05/23 22:00      0.00     18.36      ----     26400     12.33
05/23 23:00      0.00     18.27      ----     26200     12.33